Tracking 34346 objects as of 10-Jun-2026
HD Live streaming from Space Station
objects crossing your sky now

UFO 1 (USA 98)

Track UFO 1 (USA 98) now!
UFO 1 (USA 98) is classified as:


NORAD ID: 22563
Int'l Code: 1993-015A
Perigee: 36,062.8 km
Apogee: 36,100.8 km
Inclination: 25.8 °
Period: 1,450.8 minutes
Semi major axis: 42452 km
RCS: 8.2516 m2 (large)
Launch date: March 25, 1993
Source: United States (US)
Launch site: AIR FORCE EASTERN TEST RANGE (AFETR)
Your satellite tracking list
Your tracking list is empty




NASA's NSSDC Master Catalog

Two Line Element Set (TLE):
1 22563U 93015A   26160.42469640  .00000012  00000-0  00000-0 0  9999
2 22563  25.7912  72.4268 0004474 298.8690 239.5604  0.99252924124622
Source of the keplerian elements: AFSPC